EST,Max TemperatureF,Mean TemperatureF,Min TemperatureF,Max Dew PointF,MeanDew PointF,Min DewpointF,Max Humidity, Mean Humidity, Min Humidity, Max Sea Level PressureIn, Mean Sea Level PressureIn, Min Sea Level PressureIn, Max VisibilityMiles, Mean VisibilityMiles, Min VisibilityMiles, Max Wind SpeedMPH, Mean Wind SpeedMPH, Max Gust SpeedMPH,PrecipitationIn, CloudCover, Events, WindDirDegrees
2014-1-1,42,30,19,23,18,14,86,59,39,30.30,30.20,30.04,10,10,10,18,12,22,0.00,0,,224
2014-1-2,37,26,14,36,24,10,100,77,44,30.03,29.76,29.54,10,8,0,37,14,46,0.05,5,Rain-Snow,255
2014-1-3,12,6,1,9,0,-6,85,72,45,30.23,30.01,29.57,10,10,5,34,20,47,0.00,3,Snow,287
2014-1-4,35,22,10,28,6,-6,81,52,25,30.25,30.20,30.16,10,10,10,29,13,38,0.00,0,,208
2014-1-5,42,38,33,43,39,28,100,99,81,30.17,29.99,29.65,10,3,0,26,17,33,0.03,8,Fog-Rain-Snow,197
2014-1-6,44,16,-11,45,11,-18,100,83,55,29.79,29.65,29.55,10,8,0,36,22,54,0.09,6,Rain-Snow,272
2014-1-7,3,-6,-14,-8,-14,-18,84,67,55,30.16,30.00,29.77,10,10,10,34,26,46,0.00,1,,277
2014-1-8,26,14,1,10,1,-9,66,55,43,30.36,30.29,30.16,10,10,10,20,16,28,0.00,0,,266
2014-1-9,39,32,24,16,12,10,55,47,33,30.48,30.41,30.34,10,10,10,15,11,20,0.00,3,,205
2014-1-10,48,38,28,46,38,14,100,93,51,30.40,30.27,30.09,10,5,0,20,11,26,0.27,8,Rain,196
2014-1-11,50,42,33,50,45,30,100,98,81,30.06,29.74,29.54,10,5,0,28,18,37,0.60,8,Rain-Thunderstorm,227
2014-1-12,37,32,28,30,26,23,93,76,60,30.10,29.91,29.64,10,10,10,33,22,53,0.00,5,,275
2014-1-13,51,43,35,37,23,14,93,50,27,30.09,30.00,29.87,10,8,2,16,13,21,0.00,2,Rain,224
2014-1-14,39,36,33,39,34,27,100,91,70,29.90,29.82,29.73,10,4,0,22,13,29,0.04,5,Rain-Snow,261
2014-1-15,33,27,19,28,25,16,100,88,70,29.91,29.87,29.84,10,8,0,17,14,23,0.00,6,Snow,277
2014-1-16,26,19,12,18,12,10,93,74,54,29.88,29.83,29.78,10,10,10,18,13,23,0.00,2,Snow,257
2014-1-17,37,28,17,27,21,16,100,74,44,29.85,29.80,29.76,10,8,0,21,14,29,0.01,5,Snow,254
2014-1-18,17,12,6,18,7,1,100,80,67,29.82,29.77,29.70,10,9,2,30,18,44,0.00,4,Snow,277
2014-1-19,28,24,19,25,20,16,100,81,69,29.80,29.76,29.73,10,9,1,32,20,39,0.00,6,Snow,261
2014-1-20,42,34,26,25,21,16,75,60,42,29.83,29.73,29.67,10,10,10,32,24,45,0.00,0,,270
2014-1-21,33,20,5,25,20,3,100,92,65,29.79,29.65,29.54,10,4,0,17,8,25,0.03,8,Snow,70
2014-1-22,6,0,-5,1,-5,-9,92,74,56,29.82,29.75,29.67,10,9,2,28,16,32,0.00,4,Snow,287
2014-1-23,6,0,-5,5,-4,-11,92,75,56,30.17,29.98,29.82,10,6,0,25,19,39,0.00,6,Snow,278
2014-1-24,10,2,-7,-6,-9,-13,92,65,41,30.23,30.12,29.86,10,10,4,21,14,26,0.00,1,Snow,265
2014-1-25,17,14,10,18,7,-9,100,71,32,29.85,29.54,29.38,10,4,0,31,24,47,0.00,6,Snow,261
2014-1-26,35,20,5,27,6,-8,72,56,31,29.71,29.67,29.58,10,10,7,32,22,46,0.00,2,,255
2014-1-27,37,20,3,28,12,-9,86,62,38,29.95,29.77,29.68,10,10,10,30,21,40,0.00,3,,273
2014-1-28,6,2,-2,1,-6,-17,92,72,43,30.10,30.02,29.95,10,7,0,20,10,29,0.00,7,Snow,290
2014-1-29,12,2,-7,1,-8,-15,92,63,38,30.13,30.02,29.93,10,7,0,21,12,24,0.00,1,Snow,283
2014-1-30,21,12,3,3,-8,-18,56,38,21,30.18,30.11,30.04,10,10,10,17,9,17,0.00,0,,182
2014-1-31,37,30,23,23,8,1,65,41,30,30.15,30.07,30.00,10,10,10,24,17,30,0.00,0,,269